カタログに戻る

THORAD AGENA D DEB

運用中LEO
NORAD 4451·DEBRIS·🇺🇸 United States

打ち上げ Sep 30, 1969 から Vandenberg Space Force Base

Loading…

次のパス (今後24時間)

TLE

最新Source: Space-Track

元期: Sep 14, 2026, 06:26 UTC

1 04451U 69082EW  26257.26833697  .00001490  00000-0  34954-3 0  9997
2 04451  70.0321 204.0980 0033286 324.0203  35.8693 14.56148203968672

AllMySatでTHORAD AGENA D DEBをリアルタイム追跡

Download on the App Store